Location: Unspecified
(58.3661°N, 0.0000°E)
Time: 03:42:29
(UTC+00:00)

Meteor 2-3 - Visible Passes

Search period start: 04 April 2026 00:00
Search period end: 14 April 2026 00:00
Orbit: 839 x 872 km, 81.2° (Epoch: 29 March)

Date Brightness Start Highest point End Pass type
(mag) Time Alt. Az. Time Alt. Az. Time Alt. Az.
4 Apr 6.0 20:12:24 10° NNW 20:17:40 41° W 20:22:52 10° SSW visible
5 Apr 6.0 20:01:42 10° NNW 20:07:00 43° W 20:12:14 10° SSW visible
6 Apr 5.9 19:50:59 10° NNW 19:56:20 45° W 20:01:37 10° SSW visible
7 Apr 5.9 19:40:18 10° NNW 19:45:40 47° W 19:50:58 10° SSW visible
7 Apr 7.8 21:26:18 10° WNW 21:27:19 10° WNW 21:28:20 10° W visible
8 Apr 5.8 19:29:36 10° NNW 19:35:00 49° W 19:40:20 10° SSW visible
8 Apr 7.8 21:15:13 10° WNW 21:16:42 11° WNW 21:18:08 10° W visible
9 Apr 7.7 21:04:16 10° NW 21:06:03 12° WNW 21:07:51 10° W visible
10 Apr 7.7 20:53:22 10° NW 20:55:26 12° WNW 20:57:30 10° W visible
11 Apr 7.7 20:42:30 10° NW 20:44:48 13° WNW 20:47:06 10° W visible
12 Apr 7.7 20:31:39 10° NW 20:34:10 13° WNW 20:36:41 10° WSW visible
13 Apr 7.7 20:20:49 10° NW 20:23:32 14° WNW 20:26:14 10° WSW visible
